Location: Newark
(52.1752°N, 10.4140°W)
Time: 05:46:56
(UTC+00:00)

N. Korean satellite - Pass Details

Date: 20 November 2019
Orbit: 455 x 506 km, 97.2° (Epoch: 12 December)

Event Time Altitude Azimuth Distance (km) Brightness Sun altitude
Rises 17:54:26 0° 177° (S) 2,570 10.5 -10.6°
Reaches altitude 10° 17:56:31 10° 183° (S) 1,699 9.6 -10.9°
Maximum altitude 18:00:06 51° 261° (W) 638 7.6 -11.5°
Drops below altitude 10° 18:03:46 10° 338° (NNW) 1,732 9.4 -12.0°
Sets 18:05:55 0° 343° (NNW) 2,625 10.3 -12.3°
